Weather History for Western Head, NS

Change the Weather History Date:

Tuesday, December 18, 2012

  Actual Average Record
Temperature  
Mean Temperature 42 °F -  
Max Temperature 44 °F - - ()
Min Temperature 41 °F - - ()
Degree Days  
Heating Degree Days 22    
Moisture  
Dew Point 41 °F    
Average Humidity 90    
Maximum Humidity 97    
Minimum Humidity 79    
Precipitation  
Precipitation 0.51 in - - ()
Sea Level Pressure  
Sea Level Pressure 29.83 in    
Wind  
Wind Speed 23 mph ()    
Max Wind Speed 34 mph    
Max Gust Speed 44 mph    
T = Trace of Precipitation, MM = Missing Value Source: Averaged Metar Reports

Daily Weather History Graph

Daily Weather History Graph

Search for Another Location

Airport:

Trip Planner

Search our weather history database for the weather conditions in past years. The results will help you decide how hot, cold, wet, or windy it might be!

Date:

Astronomy

Dec. 18, 2012 Rise Set
Actual Time 7:48 AM AST 4:42 PM AST
Civil Twilight 7:15 AM AST 5:15 PM AST
Nautical Twilight 6:39 AM AST 5:52 PM AST
Astronomical Twilight 6:03 AM AST 6:27 PM AST
Moon 11:15 AM AST (12/18) 11:16 PM AST (12/18)
Length of Visible Light 9h 59m
Length of Day
8h 53m
Waxing Crescent, 34% of the Moon is Illuminated
Dec 18
Waxing Crescent
Dec 20
First Quarter
Dec 28
Full
Jan 4
Last Quarter
Jan 11
New

Hourly Weather History & Observations

Time (AST) Temp. Windchill Dew Point Humidity Pressure Visibility Wind Dir Wind Speed Gust Speed Precip Events Conditions
12:00 AM 41.7 °F 32.3 °F 38.1 °F 87% 30.08 in - East 21.9 mph - N/A   Unknown
1:00 AM 41.7 °F 32.3 °F 38.3 °F 88% 30.09 in - East 21.9 mph - N/A   Unknown
2:00 AM 42 °F - 39 °F 85% 30.07 in - East 20.7 mph - -  
2:00 AM 41.9 °F 32.8 °F 39.0 °F 90% 30.07 in - East 20.7 mph 27.6 mph N/A   Unknown
3:00 AM 42.4 °F 33.1 °F 38.5 °F 86% 30.05 in - East 23.0 mph - N/A   Unknown
4:00 AM 43.0 °F 34.2 °F 38.8 °F 85% 30.03 in - East 20.7 mph 27.6 mph N/A   Unknown
5:00 AM 43 °F - 39 °F 79% 30.00 in - East 24.2 mph - -  
5:00 AM 43.2 °F 33.8 °F 38.7 °F 84% 30.00 in - East 24.2 mph 31.1 mph N/A   Unknown
6:00 AM 43.3 °F 33.8 °F 38.8 °F 84% 29.97 in - East 25.3 mph 34.5 mph N/A   Unknown
7:00 AM 43.2 °F 33.0 °F 39.0 °F 85% 29.94 in - East 28.8 mph 36.8 mph N/A   Unknown
8:00 AM 44 °F - 40 °F 79% 29.93 in - East 27.6 mph - -  
8:00 AM 43.5 °F 33.6 °F 39.7 °F 87% 29.93 in - East 27.6 mph 38.0 mph N/A   Unknown
9:00 AM 43.9 °F 34.1 °F 40.5 °F 88% 29.91 in - East 27.6 mph 34.5 mph N/A   Unknown
10:00 AM 44.1 °F 34.0 °F 40.5 °F 87% 29.87 in - East 29.9 mph 38.0 mph N/A   Unknown
11:00 AM 44 °F - 41 °F 83% 29.85 in - East 31.1 mph - -  
11:00 AM 44.2 °F 34.1 °F 40.6 °F 87% 29.85 in - East 31.1 mph 42.6 mph N/A   Unknown
12:00 PM 43.5 °F 33.6 °F 41.5 °F 93% 29.83 in - East 27.6 mph 36.8 mph 0.02 in   Unknown
1:00 PM 43.3 °F 33.0 °F 41.7 °F 94% 29.78 in - East 29.9 mph 40.3 mph 0.07 in   Unknown
2:00 PM 43 °F - 41 °F 92% 29.74 in - ENE 29.9 mph - -  
2:00 PM 43.0 °F 32.5 °F 41.4 °F 94% 29.74 in - ENE 29.9 mph 40.3 mph 0.05 in   Unknown
3:00 PM 42.8 °F 32.1 °F 41.5 °F 95% 29.72 in - ENE 31.1 mph 39.1 mph 0.14 in   Unknown
4:00 PM 43.0 °F 32.2 °F 41.7 °F 95% 29.71 in - ENE 32.2 mph 40.3 mph 0.07 in   Unknown
5:00 PM 43 °F - 42 °F 94% 29.66 in - ENE 34.5 mph - -  
5:00 PM 43.2 °F 32.1 °F 41.9 °F 95% 29.66 in - ENE 34.5 mph 42.6 mph 0.07 in   Unknown
6:00 PM 43.3 °F 32.3 °F 42.1 °F 95% 29.66 in - East 34.5 mph 43.7 mph N/A   Unknown
7:00 PM 43.5 °F 32.9 °F 42.4 °F 96% 29.65 in - East 32.2 mph 42.6 mph 0.12 in   Unknown
8:00 PM 44 °F - 43 °F 96% 29.66 in - East 25.3 mph - -  
8:00 PM 44.1 °F 34.8 °F 43.2 °F 97% 29.66 in - East 25.3 mph 32.2 mph 0.10 in   Unknown
9:00 PM 44.2 °F 35.2 °F 43.3 °F 97% 29.65 in - East 24.2 mph 33.4 mph 0.07 in   Unknown
10:00 PM 44.2 °F 34.6 °F 43.3 °F 97% 29.62 in - East 27.6 mph 35.7 mph 0.07 in   Unknown
11:00 PM 44 °F - 43 °F 97% 29.60 in - East 27.6 mph - -  
11:00 PM 44.2 °F 34.6 °F 43.3 °F 97% 29.60 in - East 27.6 mph 35.7 mph 0.03 in   Unknown